Year,Month,Day,Hour,Minute,Value (Times are PST for temperature in C)
2014,06,30,00,00,12.30
2014,06,30,00,01,12.30
2014,06,30,00,02,12.20
2014,06,30,00,03,12.20
2014,06,30,00,04,12.20
2014,06,30,00,05,12.20
2014,06,30,00,06,12.20
2014,06,30,00,07,12.20
2014,06,30,00,08,12.20
2014,06,30,00,09,12.20
2014,06,30,00,10,12.20
2014,06,30,00,11,12.20
2014,06,30,00,12,12.20
2014,06,30,00,13,12.20
2014,06,30,00,14,12.20
2014,06,30,00,15,12.10
2014,06,30,00,16,12.10
2014,06,30,00,17,12.10
2014,06,30,00,18,12.10
2014,06,30,00,19,12.00
2014,06,30,00,20,12.00
2014,06,30,00,21,12.00
2014,06,30,00,22,12.00
2014,06,30,00,23,11.90
2014,06,30,00,24,11.90
2014,06,30,00,25,11.90
2014,06,30,00,26,11.90
2014,06,30,00,27,11.90
2014,06,30,00,28,11.90
2014,06,30,00,29,11.90
2014,06,30,00,30,11.80
2014,06,30,00,31,11.80
2014,06,30,00,32,11.80
2014,06,30,00,33,11.80
2014,06,30,00,34,11.80
2014,06,30,00,35,11.80
2014,06,30,00,36,11.80
2014,06,30,00,37,11.80
2014,06,30,00,38,11.80
2014,06,30,00,39,11.80
2014,06,30,00,40,11.80
2014,06,30,00,41,11.80
2014,06,30,00,42,11.80
2014,06,30,00,43,11.80
2014,06,30,00,44,11.80
2014,06,30,00,45,11.80
2014,06,30,00,46,11.80
2014,06,30,00,47,11.80
2014,06,30,00,48,11.80
2014,06,30,00,49,11.80
2014,06,30,00,50,11.80
2014,06,30,00,51,11.80
2014,06,30,00,52,11.80
2014,06,30,00,53,11.80
2014,06,30,00,54,11.70
2014,06,30,00,55,11.70
2014,06,30,00,56,11.70
2014,06,30,00,57,11.70
2014,06,30,00,58,11.70
2014,06,30,00,59,11.60
2014,06,30,01,00,11.60
2014,06,30,01,01,11.60
2014,06,30,01,02,11.60
2014,06,30,01,03,11.60
2014,06,30,01,04,11.60
2014,06,30,01,05,11.50
2014,06,30,01,06,11.50
2014,06,30,01,07,11.40
2014,06,30,01,08,11.40
2014,06,30,01,09,11.40
2014,06,30,01,10,11.40
2014,06,30,01,11,11.40
2014,06,30,01,12,11.40
2014,06,30,01,13,11.30
2014,06,30,01,14,11.30
2014,06,30,01,15,11.40
2014,06,30,01,16,11.40
2014,06,30,01,17,11.40
2014,06,30,01,18,11.40
2014,06,30,01,19,11.40
2014,06,30,01,20,11.40
2014,06,30,01,21,11.40
2014,06,30,01,22,11.40
2014,06,30,01,23,11.40
2014,06,30,01,24,11.40
2014,06,30,01,25,11.40
2014,06,30,01,26,11.40
2014,06,30,01,27,11.40
2014,06,30,01,28,11.40
2014,06,30,01,29,11.40
2014,06,30,01,30,11.40
2014,06,30,01,31,11.40
2014,06,30,01,32,11.40
2014,06,30,01,33,11.30
2014,06,30,01,34,11.30
2014,06,30,01,35,11.30
2014,06,30,01,36,11.30
2014,06,30,01,37,11.20
2014,06,30,01,38,11.20
2014,06,30,01,39,11.20
2014,06,30,01,40,11.20
2014,06,30,01,41,11.20
2014,06,30,01,42,11.20
2014,06,30,01,43,11.20
2014,06,30,01,44,11.10
2014,06,30,01,45,11.10
2014,06,30,01,46,11.10
2014,06,30,01,47,11.10
2014,06,30,01,48,11.10
2014,06,30,01,49,11.10
2014,06,30,01,50,11.10
2014,06,30,01,51,11.10
2014,06,30,01,52,11.10
2014,06,30,01,53,11.10
2014,06,30,01,54,11.10
2014,06,30,01,55,11.10
2014,06,30,01,56,11.10
2014,06,30,01,57,11.10
2014,06,30,01,58,11.10
2014,06,30,01,59,11.10
2014,06,30,02,00,11.10
2014,06,30,02,01,11.10
2014,06,30,02,02,11.10
2014,06,30,02,03,11.00
2014,06,30,02,04,11.00
2014,06,30,02,05,11.00
2014,06,30,02,06,11.00
2014,06,30,02,07,11.00
2014,06,30,02,08,11.10
2014,06,30,02,09,11.10
2014,06,30,02,10,11.20
2014,06,30,02,11,11.20
2014,06,30,02,12,11.20
2014,06,30,02,13,11.30
2014,06,30,02,14,11.30
2014,06,30,02,15,11.30
2014,06,30,02,16,11.30
2014,06,30,02,17,11.30
2014,06,30,02,18,11.20
2014,06,30,02,19,11.20
2014,06,30,02,20,11.20
2014,06,30,02,21,11.20
2014,06,30,02,22,11.20
2014,06,30,02,23,11.10
2014,06,30,02,24,11.10
2014,06,30,02,25,11.10
2014,06,30,02,26,11.10
2014,06,30,02,27,11.10
2014,06,30,02,28,11.10
2014,06,30,02,29,11.10
2014,06,30,02,30,11.10
2014,06,30,02,31,11.10
2014,06,30,02,32,11.10
2014,06,30,02,33,11.00
2014,06,30,02,34,11.00
2014,06,30,02,35,11.00
2014,06,30,02,36,10.90
2014,06,30,02,37,10.90
2014,06,30,02,38,10.90
2014,06,30,02,39,10.90
2014,06,30,02,40,10.80
2014,06,30,02,41,10.80
2014,06,30,02,42,10.80
2014,06,30,02,43,10.80
2014,06,30,02,44,10.80
2014,06,30,02,45,10.70
2014,06,30,02,46,10.70
2014,06,30,02,47,10.70
2014,06,30,02,48,10.70
2014,06,30,02,49,10.60
2014,06,30,02,50,10.60
2014,06,30,02,51,10.60
2014,06,30,02,52,10.60
2014,06,30,02,53,10.60
2014,06,30,02,54,10.60
2014,06,30,02,55,10.60
2014,06,30,02,56,10.50
2014,06,30,02,57,10.50
2014,06,30,02,58,10.50
2014,06,30,02,59,10.50
2014,06,30,03,00,10.50
2014,06,30,03,01,10.50
2014,06,30,03,02,10.60
2014,06,30,03,03,10.60
2014,06,30,03,04,10.60
2014,06,30,03,05,10.60
2014,06,30,03,06,10.60
2014,06,30,03,07,10.50
2014,06,30,03,08,10.60
2014,06,30,03,09,10.60
2014,06,30,03,10,10.60
2014,06,30,03,11,10.60
2014,06,30,03,12,10.70
2014,06,30,03,13,10.70
2014,06,30,03,14,10.70
2014,06,30,03,15,10.70
2014,06,30,03,16,10.70
2014,06,30,03,17,10.80
2014,06,30,03,18,10.80
2014,06,30,03,19,10.80
2014,06,30,03,20,10.80
2014,06,30,03,21,10.70
2014,06,30,03,22,10.70
2014,06,30,03,23,10.70
2014,06,30,03,24,10.70
2014,06,30,03,25,10.70
2014,06,30,03,26,10.70
2014,06,30,03,27,10.70
2014,06,30,03,28,10.60
2014,06,30,03,29,10.60
2014,06,30,03,30,10.60
2014,06,30,03,31,10.60
2014,06,30,03,32,10.60
2014,06,30,03,33,10.60
2014,06,30,03,34,10.50
2014,06,30,03,35,10.50
2014,06,30,03,36,10.50
2014,06,30,03,37,10.50
2014,06,30,03,38,10.40
2014,06,30,03,39,10.40
2014,06,30,03,40,10.40
2014,06,30,03,41,10.40
2014,06,30,03,42,10.40
2014,06,30,03,43,10.40
2014,06,30,03,44,10.40
2014,06,30,03,45,10.40
2014,06,30,03,46,10.40
2014,06,30,03,47,10.40
2014,06,30,03,48,10.30
2014,06,30,03,49,10.30
2014,06,30,03,50,10.30
2014,06,30,03,51,10.30
2014,06,30,03,52,10.30
2014,06,30,03,53,10.20
2014,06,30,03,54,10.20
2014,06,30,03,55,10.20
2014,06,30,03,56,10.20
2014,06,30,03,57,10.20
2014,06,30,03,58,10.20
2014,06,30,03,59,10.20
2014,06,30,04,00,10.20
2014,06,30,04,01,10.20
2014,06,30,04,02,10.20
2014,06,30,04,03,10.20
2014,06,30,04,04,10.20
2014,06,30,04,05,10.10
2014,06,30,04,06,10.10
2014,06,30,04,07,10.10
2014,06,30,04,08,10.10
2014,06,30,04,09,10.10
2014,06,30,04,10,10.10
2014,06,30,04,11,10.10
2014,06,30,04,12,10.10
2014,06,30,04,13,10.00
2014,06,30,04,14,10.00
2014,06,30,04,15,10.00
2014,06,30,04,16,10.00
2014,06,30,04,17,10.00
2014,06,30,04,18,10.00
2014,06,30,04,19,10.00
2014,06,30,04,20,10.00
2014,06,30,04,21,9.90
2014,06,30,04,22,9.90
2014,06,30,04,23,9.90
2014,06,30,04,24,9.90
2014,06,30,04,25,9.90
2014,06,30,04,26,9.90
2014,06,30,04,27,9.90
2014,06,30,04,28,9.90
2014,06,30,04,29,9.90
2014,06,30,04,30,9.90
2014,06,30,04,31,9.90
2014,06,30,04,32,9.90
2014,06,30,04,33,9.90
2014,06,30,04,34,9.90
2014,06,30,04,35,9.90
2014,06,30,04,36,9.80
2014,06,30,04,37,9.80
2014,06,30,04,38,9.80
2014,06,30,04,39,9.80
2014,06,30,04,40,9.80
2014,06,30,04,41,9.80
2014,06,30,04,42,9.80
2014,06,30,04,43,9.80
2014,06,30,04,44,9.80
2014,06,30,04,45,9.80
2014,06,30,04,46,9.80
2014,06,30,04,47,9.80
2014,06,30,04,48,9.80
2014,06,30,04,49,9.80
2014,06,30,04,50,9.80
2014,06,30,04,51,9.80
2014,06,30,04,52,9.80
2014,06,30,04,53,9.80
2014,06,30,04,54,9.80
2014,06,30,04,55,9.80
2014,06,30,04,56,9.80
2014,06,30,04,57,9.80
2014,06,30,04,58,9.80
2014,06,30,04,59,9.80
2014,06,30,05,00,9.80
2014,06,30,05,01,9.80
2014,06,30,05,02,9.80
2014,06,30,05,03,9.80
2014,06,30,05,04,9.80
2014,06,30,05,05,9.70
2014,06,30,05,06,9.70
2014,06,30,05,07,9.70
2014,06,30,05,08,9.70
2014,06,30,05,09,9.70
2014,06,30,05,10,9.70
2014,06,30,05,11,9.70
2014,06,30,05,12,9.60
2014,06,30,05,13,9.60
2014,06,30,05,14,9.60
2014,06,30,05,15,9.60
2014,06,30,05,16,9.60
2014,06,30,05,17,9.60
2014,06,30,05,18,9.60
2014,06,30,05,19,9.60
2014,06,30,05,20,9.60
2014,06,30,05,21,9.60
2014,06,30,05,22,9.60
2014,06,30,05,23,9.70
2014,06,30,05,24,9.70
2014,06,30,05,25,9.70
2014,06,30,05,26,9.70
2014,06,30,05,27,9.70
2014,06,30,05,28,9.70
2014,06,30,05,29,9.80
2014,06,30,05,30,9.80
2014,06,30,05,31,9.80
2014,06,30,05,32,9.80
2014,06,30,05,33,9.80
2014,06,30,05,34,9.90
2014,06,30,05,35,9.90
2014,06,30,05,36,9.90
2014,06,30,05,37,9.90
2014,06,30,05,38,10.00
2014,06,30,05,39,10.00
2014,06,30,05,40,10.00
2014,06,30,05,41,10.10
2014,06,30,05,42,10.10
2014,06,30,05,43,10.10
2014,06,30,05,44,10.10
2014,06,30,05,45,10.20
2014,06,30,05,46,10.20
2014,06,30,05,47,10.20
2014,06,30,05,48,10.20
2014,06,30,05,49,10.20
2014,06,30,05,50,10.20
2014,06,30,05,51,10.20
2014,06,30,05,52,10.20
2014,06,30,05,53,10.20
2014,06,30,05,54,10.20
2014,06,30,05,55,10.20
2014,06,30,05,56,10.20
2014,06,30,05,57,10.30
2014,06,30,05,58,10.30
2014,06,30,05,59,10.30
2014,06,30,06,00,10.30
2014,06,30,06,01,10.30
2014,06,30,06,02,10.30
2014,06,30,06,03,10.30
2014,06,30,06,04,10.30
2014,06,30,06,05,10.30
2014,06,30,06,06,10.40
2014,06,30,06,07,10.40
2014,06,30,06,08,10.40
2014,06,30,06,09,10.50
2014,06,30,06,10,10.50
2014,06,30,06,11,10.50
2014,06,30,06,12,10.60
2014,06,30,06,13,10.60
2014,06,30,06,14,10.60
2014,06,30,06,15,10.60
2014,06,30,06,16,10.70
2014,06,30,06,17,10.70
2014,06,30,06,18,10.70
2014,06,30,06,19,10.70
2014,06,30,06,20,10.80
2014,06,30,06,21,10.80
2014,06,30,06,22,10.80
2014,06,30,06,23,10.80
2014,06,30,06,24,10.90
2014,06,30,06,25,10.90
2014,06,30,06,26,10.90
2014,06,30,06,27,10.90
2014,06,30,06,28,10.90
2014,06,30,06,29,10.90
2014,06,30,06,30,10.90
2014,06,30,06,31,11.00
2014,06,30,06,32,11.00
2014,06,30,06,33,11.00
2014,06,30,06,34,11.10
2014,06,30,06,35,11.10
2014,06,30,06,36,11.10
2014,06,30,06,37,11.10
2014,06,30,06,38,11.10
2014,06,30,06,39,11.10
2014,06,30,06,40,11.10
2014,06,30,06,41,11.10
2014,06,30,06,42,11.20
2014,06,30,06,43,11.20
2014,06,30,06,44,11.20
2014,06,30,06,45,11.20
2014,06,30,06,46,11.30
2014,06,30,06,47,11.30
2014,06,30,06,48,11.30
2014,06,30,06,49,11.30
2014,06,30,06,50,11.40
2014,06,30,06,51,11.40
2014,06,30,06,52,11.40
2014,06,30,06,53,11.40
2014,06,30,06,54,11.40
2014,06,30,06,55,11.40
2014,06,30,06,56,11.50
2014,06,30,06,57,11.50
2014,06,30,06,58,11.50
2014,06,30,06,59,11.60
2014,06,30,07,00,11.60
2014,06,30,07,01,11.60
2014,06,30,07,02,11.60
2014,06,30,07,03,11.70
2014,06,30,07,04,11.70
2014,06,30,07,05,11.70
2014,06,30,07,06,11.70
2014,06,30,07,07,11.80
2014,06,30,07,08,11.80
2014,06,30,07,09,11.80
2014,06,30,07,10,11.90
2014,06,30,07,11,11.90
2014,06,30,07,12,12.00
2014,06,30,07,13,12.00
2014,06,30,07,14,12.10
2014,06,30,07,15,12.10
2014,06,30,07,16,12.20
2014,06,30,07,17,12.20
2014,06,30,07,18,12.30
2014,06,30,07,19,12.30
2014,06,30,07,20,12.30
2014,06,30,07,21,12.40
2014,06,30,07,22,12.40
2014,06,30,07,23,12.50
2014,06,30,07,24,12.50
2014,06,30,07,25,12.50
2014,06,30,07,26,12.60
2014,06,30,07,27,12.70
2014,06,30,07,28,12.70
2014,06,30,07,29,12.80
2014,06,30,07,30,12.80
2014,06,30,07,31,12.80
2014,06,30,07,32,12.90
2014,06,30,07,33,12.90
2014,06,30,07,34,12.90
2014,06,30,07,35,12.90
2014,06,30,07,36,13.00
2014,06,30,07,37,13.00
2014,06,30,07,38,13.00
2014,06,30,07,39,13.10
2014,06,30,07,40,13.10
2014,06,30,07,41,13.10
2014,06,30,07,42,13.10
2014,06,30,07,43,13.20
2014,06,30,07,44,13.20
2014,06,30,07,45,13.20
2014,06,30,07,46,13.30
2014,06,30,07,47,13.30
2014,06,30,07,48,13.30
2014,06,30,07,49,13.40
2014,06,30,07,50,13.40
2014,06,30,07,51,13.40
2014,06,30,07,52,13.50
2014,06,30,07,53,13.60
2014,06,30,07,54,13.60
2014,06,30,07,55,13.60
2014,06,30,07,56,13.70
2014,06,30,07,57,13.80
2014,06,30,07,58,13.80
2014,06,30,07,59,14.00
2014,06,30,08,00,14.10
2014,06,30,08,01,14.10
2014,06,30,08,02,14.20
2014,06,30,08,03,14.30
2014,06,30,08,04,14.40
2014,06,30,08,05,14.50
2014,06,30,08,06,14.50
2014,06,30,08,07,14.60
2014,06,30,08,08,14.60
2014,06,30,08,09,14.70
2014,06,30,08,10,14.70
2014,06,30,08,11,14.70
2014,06,30,08,12,14.80
2014,06,30,08,13,14.80
2014,06,30,08,14,14.80
2014,06,30,08,15,14.90
2014,06,30,08,16,14.90
2014,06,30,08,17,14.90
2014,06,30,08,18,15.00
2014,06,30,08,19,15.10
2014,06,30,08,20,15.20
2014,06,30,08,21,15.20
2014,06,30,08,22,15.20
2014,06,30,08,23,15.30
2014,06,30,08,24,15.30
2014,06,30,08,25,15.40
2014,06,30,08,26,15.40
2014,06,30,08,27,15.50
2014,06,30,08,28,15.50
2014,06,30,08,29,15.60
2014,06,30,08,30,15.70
2014,06,30,08,31,15.70
2014,06,30,08,32,15.70
2014,06,30,08,33,15.70
2014,06,30,08,34,15.80
2014,06,30,08,35,15.80
2014,06,30,08,36,15.80
2014,06,30,08,37,15.80
2014,06,30,08,38,15.90
2014,06,30,08,39,15.90
2014,06,30,08,40,15.90
2014,06,30,08,41,16.00
2014,06,30,08,42,16.00
2014,06,30,08,43,16.10
2014,06,30,08,44,16.10
2014,06,30,08,45,16.20
2014,06,30,08,46,16.20
2014,06,30,08,47,16.20
2014,06,30,08,48,16.20
2014,06,30,08,49,16.20
2014,06,30,08,50,16.20
2014,06,30,08,51,16.20
2014,06,30,08,52,16.20
2014,06,30,08,53,16.10
2014,06,30,08,54,16.10
2014,06,30,08,55,16.10
2014,06,30,08,56,16.20
2014,06,30,08,57,16.20
2014,06,30,08,58,16.20
2014,06,30,08,59,16.20
2014,06,30,09,00,16.30
2014,06,30,09,01,16.30
2014,06,30,09,02,16.30
2014,06,30,09,03,16.30
2014,06,30,09,04,16.40
2014,06,30,09,05,16.40
2014,06,30,09,06,16.50
2014,06,30,09,07,16.50
2014,06,30,09,08,16.60
2014,06,30,09,09,16.70
2014,06,30,09,10,16.70
2014,06,30,09,11,16.80
2014,06,30,09,12,16.80
2014,06,30,09,13,16.80
2014,06,30,09,14,16.80
2014,06,30,09,15,16.80
2014,06,30,09,16,16.80
2014,06,30,09,17,16.80
2014,06,30,09,18,16.80
2014,06,30,09,19,16.80
2014,06,30,09,20,16.90
2014,06,30,09,21,17.00
2014,06,30,09,22,17.00
2014,06,30,09,23,17.10
2014,06,30,09,24,17.20
2014,06,30,09,25,17.20
2014,06,30,09,26,17.30
2014,06,30,09,27,17.40
2014,06,30,09,28,17.50
2014,06,30,09,29,17.60
2014,06,30,09,30,17.60
2014,06,30,09,31,17.70
2014,06,30,09,32,17.70
2014,06,30,09,33,17.80
2014,06,30,09,34,17.80
2014,06,30,09,35,17.80
2014,06,30,09,36,17.80
2014,06,30,09,37,17.80
2014,06,30,09,38,17.80
2014,06,30,09,39,17.80
2014,06,30,09,40,17.80
2014,06,30,09,41,17.80
2014,06,30,09,42,17.80
2014,06,30,09,43,17.90
2014,06,30,09,44,17.90
2014,06,30,09,45,17.90
2014,06,30,09,46,17.90
2014,06,30,09,47,17.90
2014,06,30,09,48,17.90
2014,06,30,09,49,17.90
2014,06,30,09,50,17.90
2014,06,30,09,51,18.00
2014,06,30,09,52,18.00
2014,06,30,09,53,18.00
2014,06,30,09,54,18.00
2014,06,30,09,55,18.10
2014,06,30,09,56,18.10
2014,06,30,09,57,18.10
2014,06,30,09,58,18.10
2014,06,30,09,59,18.20
2014,06,30,10,00,18.10
2014,06,30,10,01,18.10
2014,06,30,10,02,18.10
2014,06,30,10,03,18.20
2014,06,30,10,04,18.20
2014,06,30,10,05,18.30
2014,06,30,10,06,18.30
2014,06,30,10,07,18.30
2014,06,30,10,08,18.30
2014,06,30,10,09,18.40
2014,06,30,10,10,18.50
2014,06,30,10,11,18.50
2014,06,30,10,12,18.50
2014,06,30,10,13,18.50
2014,06,30,10,14,18.60
2014,06,30,10,15,18.60
2014,06,30,10,16,18.70
2014,06,30,10,17,18.70
2014,06,30,10,18,18.70
2014,06,30,10,19,18.70
2014,06,30,10,20,18.70
2014,06,30,10,21,18.80
2014,06,30,10,22,18.80
2014,06,30,10,23,18.90
2014,06,30,10,24,18.80
2014,06,30,10,25,18.80
2014,06,30,10,26,18.80
2014,06,30,10,27,18.80
2014,06,30,10,28,18.80
2014,06,30,10,29,18.80
2014,06,30,10,30,18.80
2014,06,30,10,31,18.80
2014,06,30,10,32,18.80
2014,06,30,10,33,18.80
2014,06,30,10,34,18.70
2014,06,30,10,35,18.70
2014,06,30,10,36,18.70
2014,06,30,10,37,18.60
2014,06,30,10,38,18.60
2014,06,30,10,39,18.60
2014,06,30,10,40,18.70
2014,06,30,10,41,18.70
2014,06,30,10,42,18.70
2014,06,30,10,43,18.70
2014,06,30,10,44,18.70
2014,06,30,10,45,18.80
2014,06,30,10,46,18.80
2014,06,30,10,47,18.80
2014,06,30,10,48,18.80
2014,06,30,10,49,18.80
2014,06,30,10,50,18.80
2014,06,30,10,51,18.80
2014,06,30,10,52,18.80
2014,06,30,10,53,18.80
2014,06,30,10,54,18.90
2014,06,30,10,55,18.90
2014,06,30,10,56,18.90
2014,06,30,10,57,18.90
2014,06,30,10,58,18.90
2014,06,30,10,59,18.90
2014,06,30,11,00,18.90
2014,06,30,11,01,18.90
2014,06,30,11,02,19.00
2014,06,30,11,03,19.00
2014,06,30,11,04,19.00
2014,06,30,11,05,19.00
2014,06,30,11,06,19.00
2014,06,30,11,07,19.00
2014,06,30,11,08,19.00
2014,06,30,11,09,19.00
2014,06,30,11,10,19.10
2014,06,30,11,11,19.10
2014,06,30,11,12,19.10
2014,06,30,11,13,19.20
2014,06,30,11,14,19.20
2014,06,30,11,15,19.10
2014,06,30,11,16,19.10
2014,06,30,11,17,19.10
2014,06,30,11,18,19.10
2014,06,30,11,19,19.10
2014,06,30,11,20,19.10
2014,06,30,11,21,19.10
2014,06,30,11,22,19.20
2014,06,30,11,23,19.30
2014,06,30,11,24,19.40
2014,06,30,11,25,19.40
2014,06,30,11,26,19.50
2014,06,30,11,27,19.50
2014,06,30,11,28,19.50
2014,06,30,11,29,19.60
2014,06,30,11,30,19.60
2014,06,30,11,31,19.70
2014,06,30,11,32,19.70
2014,06,30,11,33,19.60
2014,06,30,11,34,19.70
2014,06,30,11,35,19.70
2014,06,30,11,36,19.70
2014,06,30,11,37,19.80
2014,06,30,11,38,19.80
2014,06,30,11,39,19.80
2014,06,30,11,40,19.80
2014,06,30,11,41,19.70
2014,06,30,11,42,19.70
2014,06,30,11,43,19.60
2014,06,30,11,44,19.60
2014,06,30,11,45,19.60
2014,06,30,11,46,19.60
2014,06,30,11,47,19.70
2014,06,30,11,48,19.70
2014,06,30,11,49,19.80
2014,06,30,11,50,19.80
2014,06,30,11,51,19.80
2014,06,30,11,52,19.80
2014,06,30,11,53,19.80
2014,06,30,11,54,19.80
2014,06,30,11,55,19.80
2014,06,30,11,56,19.90
2014,06,30,11,57,19.90
2014,06,30,11,58,19.90
2014,06,30,11,59,19.90
2014,06,30,12,00,19.90
2014,06,30,12,01,19.90
2014,06,30,12,02,19.90
2014,06,30,12,03,19.90
2014,06,30,12,04,19.90
2014,06,30,12,05,19.90
2014,06,30,12,06,19.90
2014,06,30,12,07,20.00
2014,06,30,12,08,20.10
2014,06,30,12,09,20.10
2014,06,30,12,10,20.10
2014,06,30,12,11,20.00
2014,06,30,12,12,20.00
2014,06,30,12,13,19.90
2014,06,30,12,14,19.90
2014,06,30,12,15,20.00
2014,06,30,12,16,20.10
2014,06,30,12,17,20.10
2014,06,30,12,18,20.10
2014,06,30,12,19,20.10
2014,06,30,12,20,20.10
2014,06,30,12,21,20.10
2014,06,30,12,22,20.10
2014,06,30,12,23,20.10
2014,06,30,12,24,20.10
2014,06,30,12,25,20.20
2014,06,30,12,26,20.30
2014,06,30,12,27,20.40
2014,06,30,12,28,20.40
2014,06,30,12,29,20.40
2014,06,30,12,30,20.40
2014,06,30,12,31,20.40
2014,06,30,12,32,20.40
2014,06,30,12,33,20.30
2014,06,30,12,34,20.30
2014,06,30,12,35,20.30
2014,06,30,12,36,20.30
2014,06,30,12,37,20.20
2014,06,30,12,38,20.30
2014,06,30,12,39,20.30
2014,06,30,12,40,20.30
2014,06,30,12,41,20.30
2014,06,30,12,42,20.40
2014,06,30,12,43,20.40
2014,06,30,12,44,20.50
2014,06,30,12,45,20.50
2014,06,30,12,46,20.60
2014,06,30,12,47,20.70
2014,06,30,12,48,20.70
2014,06,30,12,49,20.70
2014,06,30,12,50,20.70
2014,06,30,12,51,20.70
2014,06,30,12,52,20.70
2014,06,30,12,53,20.60
2014,06,30,12,54,20.60
2014,06,30,12,55,20.60
2014,06,30,12,56,20.50
2014,06,30,12,57,20.50
2014,06,30,12,58,20.50
2014,06,30,12,59,20.50
2014,06,30,13,00,20.60
2014,06,30,13,01,20.70
2014,06,30,13,02,20.80
2014,06,30,13,03,20.90
2014,06,30,13,04,21.10
2014,06,30,13,05,21.10
2014,06,30,13,06,21.10
2014,06,30,13,07,21.10
2014,06,30,13,08,21.00
2014,06,30,13,09,21.00
2014,06,30,13,10,20.90
2014,06,30,13,11,21.00
2014,06,30,13,12,21.00
2014,06,30,13,13,21.10
2014,06,30,13,14,21.10
2014,06,30,13,15,21.10
2014,06,30,13,16,21.10
2014,06,30,13,17,21.00
2014,06,30,13,18,21.00
2014,06,30,13,19,21.00
2014,06,30,13,20,21.00
2014,06,30,13,21,21.00
2014,06,30,13,22,21.10
2014,06,30,13,23,21.10
2014,06,30,13,24,21.10
2014,06,30,13,25,21.20
2014,06,30,13,26,21.20
2014,06,30,13,27,21.10
2014,06,30,13,28,21.10
2014,06,30,13,29,21.00
2014,06,30,13,30,21.00
2014,06,30,13,31,21.00
2014,06,30,13,32,21.00
2014,06,30,13,33,21.00
2014,06,30,13,34,20.90
2014,06,30,13,35,20.90
2014,06,30,13,36,21.00
2014,06,30,13,37,21.00
2014,06,30,13,38,21.10
2014,06,30,13,39,21.20
2014,06,30,13,40,21.20
2014,06,30,13,41,21.30
2014,06,30,13,42,21.30
2014,06,30,13,43,21.30
2014,06,30,13,44,21.30
2014,06,30,13,45,21.30
2014,06,30,13,46,21.30
2014,06,30,13,47,21.30
2014,06,30,13,48,21.30
2014,06,30,13,49,21.30
2014,06,30,13,50,21.30
2014,06,30,13,51,21.30
2014,06,30,13,52,21.30
2014,06,30,13,53,21.30
2014,06,30,13,54,21.30
2014,06,30,13,55,21.30
2014,06,30,13,56,21.20
2014,06,30,13,57,21.20
2014,06,30,13,58,21.20
2014,06,30,13,59,21.20
2014,06,30,14,00,21.20
2014,06,30,14,01,21.20
2014,06,30,14,02,21.30
2014,06,30,14,03,21.30
2014,06,30,14,04,21.30
2014,06,30,14,05,21.30
2014,06,30,14,06,21.30
2014,06,30,14,07,21.30
2014,06,30,14,08,21.40
2014,06,30,14,09,21.50
2014,06,30,14,10,21.50
2014,06,30,14,11,21.60
2014,06,30,14,12,21.60
2014,06,30,14,13,21.70
2014,06,30,14,14,21.70
2014,06,30,14,15,21.80
2014,06,30,14,16,21.80
2014,06,30,14,17,21.80
2014,06,30,14,18,21.80
2014,06,30,14,19,21.80
2014,06,30,14,20,21.80
2014,06,30,14,21,21.80
2014,06,30,14,22,21.80
2014,06,30,14,23,21.80
2014,06,30,14,24,21.70
2014,06,30,14,25,21.70
2014,06,30,14,26,21.80
2014,06,30,14,27,21.80
2014,06,30,14,28,21.80
2014,06,30,14,29,21.80
2014,06,30,14,30,21.80
2014,06,30,14,31,21.80
2014,06,30,14,32,21.80
2014,06,30,14,33,21.90
2014,06,30,14,34,21.90
2014,06,30,14,35,21.90
2014,06,30,14,36,21.90
2014,06,30,14,37,21.90
2014,06,30,14,38,22.00
2014,06,30,14,39,22.10
2014,06,30,14,40,22.10
2014,06,30,14,41,22.10
2014,06,30,14,42,22.10
2014,06,30,14,43,22.10
2014,06,30,14,44,22.00
2014,06,30,14,45,22.00
2014,06,30,14,46,22.10
2014,06,30,14,47,22.10
2014,06,30,14,48,22.10
2014,06,30,14,49,22.10
2014,06,30,14,50,22.10
2014,06,30,14,51,22.00
2014,06,30,14,52,22.00
2014,06,30,14,53,22.00
2014,06,30,14,54,21.90
2014,06,30,14,55,21.90
2014,06,30,14,56,21.90
2014,06,30,14,57,21.90
2014,06,30,14,58,21.90
2014,06,30,14,59,21.90
2014,06,30,15,00,22.00
2014,06,30,15,01,22.00
2014,06,30,15,02,22.10
2014,06,30,15,03,22.20
2014,06,30,15,04,22.20
2014,06,30,15,05,22.20
2014,06,30,15,06,22.20
2014,06,30,15,07,22.20
2014,06,30,15,08,22.20
2014,06,30,15,09,22.20
2014,06,30,15,10,22.20
2014,06,30,15,11,22.30
2014,06,30,15,12,22.30
2014,06,30,15,13,22.30
2014,06,30,15,14,22.30
2014,06,30,15,15,22.30
2014,06,30,15,16,22.30
2014,06,30,15,17,22.30
2014,06,30,15,18,22.30
2014,06,30,15,19,22.30
2014,06,30,15,20,22.40
2014,06,30,15,21,22.40
2014,06,30,15,22,22.40
2014,06,30,15,23,22.30
2014,06,30,15,24,22.40
2014,06,30,15,25,22.40
2014,06,30,15,26,22.50
2014,06,30,15,27,22.50
2014,06,30,15,28,22.50
2014,06,30,15,29,22.60
2014,06,30,15,30,22.70
2014,06,30,15,31,22.80
2014,06,30,15,32,22.80
2014,06,30,15,33,22.90
2014,06,30,15,34,22.90
2014,06,30,15,35,22.90
2014,06,30,15,36,22.90
2014,06,30,15,37,22.80
2014,06,30,15,38,22.80
2014,06,30,15,39,22.70
2014,06,30,15,40,22.70
2014,06,30,15,41,22.70
2014,06,30,15,42,22.70
2014,06,30,15,43,22.70
2014,06,30,15,44,22.70
2014,06,30,15,45,22.70
2014,06,30,15,46,22.60
2014,06,30,15,47,22.60
2014,06,30,15,48,22.60
2014,06,30,15,49,22.60
2014,06,30,15,50,22.60
2014,06,30,15,51,22.60
2014,06,30,15,52,22.70
2014,06,30,15,53,22.80
2014,06,30,15,54,22.90
2014,06,30,15,55,23.00
2014,06,30,15,56,23.10
2014,06,30,15,57,23.00
2014,06,30,15,58,22.90
2014,06,30,15,59,22.90
2014,06,30,16,00,23.00
2014,06,30,16,01,23.00
2014,06,30,16,02,23.00
2014,06,30,16,03,23.00
2014,06,30,16,04,23.00
2014,06,30,16,05,23.10
2014,06,30,16,06,23.20
2014,06,30,16,07,23.30
2014,06,30,16,08,23.40
2014,06,30,16,09,23.60
2014,06,30,16,10,23.70
2014,06,30,16,11,23.70
2014,06,30,16,12,23.60
2014,06,30,16,13,23.60
2014,06,30,16,14,23.50
2014,06,30,16,15,23.30
2014,06,30,16,16,23.30
2014,06,30,16,17,23.20
2014,06,30,16,18,23.20
2014,06,30,16,19,23.30
2014,06,30,16,20,23.30
2014,06,30,16,21,23.30
2014,06,30,16,22,23.30
2014,06,30,16,23,23.40
2014,06,30,16,24,23.40
2014,06,30,16,25,23.30
2014,06,30,16,26,23.40
2014,06,30,16,27,23.40
2014,06,30,16,28,23.40
2014,06,30,16,29,23.50
2014,06,30,16,30,23.60
2014,06,30,16,31,23.60
2014,06,30,16,32,23.70
2014,06,30,16,33,23.70
2014,06,30,16,34,23.80
2014,06,30,16,35,23.80
2014,06,30,16,36,23.80
2014,06,30,16,37,23.80
2014,06,30,16,38,23.90
2014,06,30,16,39,23.80
2014,06,30,16,40,23.80
2014,06,30,16,41,23.80
2014,06,30,16,42,23.80
2014,06,30,16,43,23.80
2014,06,30,16,44,23.80
2014,06,30,16,45,23.90
2014,06,30,16,46,23.90
2014,06,30,16,47,23.90
2014,06,30,16,48,23.90
2014,06,30,16,49,24.00
2014,06,30,16,50,24.10
2014,06,30,16,51,24.20
2014,06,30,16,52,24.20
2014,06,30,16,53,24.30
2014,06,30,16,54,24.30
2014,06,30,16,55,24.30
2014,06,30,16,56,24.30
2014,06,30,16,57,24.30
2014,06,30,16,58,24.30
2014,06,30,16,59,24.30
2014,06,30,17,00,24.40
2014,06,30,17,01,24.40
2014,06,30,17,02,24.50
2014,06,30,17,03,24.40
2014,06,30,17,04,24.40
2014,06,30,17,05,24.30
2014,06,30,17,06,24.30
2014,06,30,17,07,24.30
2014,06,30,17,08,24.30
2014,06,30,17,09,24.30
2014,06,30,17,10,24.30
2014,06,30,17,11,24.30
2014,06,30,17,12,24.30
2014,06,30,17,13,24.40
2014,06,30,17,14,24.40
2014,06,30,17,15,24.40
2014,06,30,17,16,24.40
2014,06,30,17,17,24.40
2014,06,30,17,18,24.30
2014,06,30,17,19,24.30
2014,06,30,17,20,24.20
2014,06,30,17,21,24.30
2014,06,30,17,22,24.30